This is the latest recevied weather packets stored in our database for station/object DH4SBM. If no packets are shown the sender has not sent any weather packets the latest 10 day(s).
| Time | Temp. | Humidity | Pressure | Rain* | Wind** | Luminosity | Snow |
|---|---|---|---|---|---|---|---|
| 1778070456 | 18.33° C | 64% | 1006.6 hPa | 0 mm | - | 174 W/m² | - |
| 1778069856 | 18.33° C | 65% | 1006.5 hPa | 0 mm | - | 193 W/m² | - |
| 1778069256 | 18.33° C | 66% | 1006.7 hPa | 0 mm | - | 174 W/m² | - |
| 1778068656 | 18.33° C | 67% | 1006.8 hPa | 0 mm | - | 156 W/m² | - |
| 1778068056 | 18.33° C | 65% | 1006.8 hPa | 0 mm | - | 165 W/m² | - |
| 1778067456 | 18.89° C | 64% | 1006.6 hPa | 0 mm | - | 202 W/m² | - |
| 1778066856 | 18.89° C | 65% | 1006.7 hPa | 0 mm | - | 269 W/m² | - |
| 1778066256 | 18.89° C | 66% | 1006.8 hPa | 0 mm | - | 392 W/m² | - |
| 1778065656 | 18.33° C | 64% | 1007.1 hPa | 0 mm | - | 290 W/m² | - |
| 1778065055 | 17.78° C | 66% | 1007.1 hPa | 0 mm | - | 805 W/m² | - |
| 1778064455 | 17.22° C | 68% | 1007.1 hPa | 0 mm | - | 415 W/m² | - |
| 1778063855 | 17.22° C | 68% | 1007.2 hPa | 0 mm | - | 394 W/m² | - |
| 1778063255 | 17.22° C | 68% | 1007.4 hPa | 0 mm | - | 454 W/m² | - |
| 1778062655 | 17.22° C | 69% | 1007.4 hPa | 0 mm | - | 406 W/m² | - |
| 1778062053 | 17.22° C | 69% | 1007.4 hPa | 0 mm | - | 436 W/m² | - |
| 1778061453 | 17.78° C | 66% | 1007.5 hPa | 0 mm | - | 432 W/m² | - |
| 1778060854 | 17.78° C | 65% | 1007.6 hPa | 0 mm | - | 323 W/m² | - |
| 1778060254 | 17.78° C | 65% | 1007.5 hPa | 0 mm | - | 788 W/m² | - |
| 1778059654 | 17.22° C | 65% | 1007.6 hPa | 0 mm | - | 652 W/m² | - |
| 1778058940 | 17.78° C | 65% | 1007.5 hPa | 0 mm | - | 728 W/m² | - |
| 1778058340 | 17.22° C | 64% | 1007.5 hPa | 0 mm | - | 663 W/m² | - |
| 1778057740 | 17.22° C | 69% | 1007.5 hPa | 0 mm | - | 548 W/m² | - |
| 1778057140 | 17.22° C | 69% | 1007.6 hPa | 0 mm | - | 598 W/m² | - |
| 1778056540 | 16.67° C | 70% | 1007.7 hPa | 0 mm | - | 747 W/m² | - |
| 1778055940 | 16.67° C | 71% | 1007.7 hPa | 0 mm | - | 619 W/m² | - |
* Rain latest hour (hover to see other rain measurements)
** Current wind speed in m/s (hover to see current wind gust speed)